Tracking 19709 objects as of 20-Jun-2019
HD Live streaming from Space Station
objects crossing your sky now

ARIANE 42L R/B

Track ARIANE 42L R/B now!
10-day predictions


NORAD ID: 25586
Int'l Code: 1998-075B
Perigee: 209.2 km
Apogee: 16,888.0 km
Inclination: 7.5 °
Period: 302.3 minutes
Semi major axis: 14919 km
RCS: 21.3079 m2 (large)
Launch date: December 22, 1998
Source: France (FR)
Launch site: FRENCH GUIANA (FRGUI)

Note: This is a ROCKET BODY
aabbcc
Your satellite tracking list
Your tracking list is empty




NASA's NSSDC Master Catalog

Two Line Element Set (TLE):
1 25586U 98075B   19171.36801908  .00027956  00000-0  75229-3 0  9996
2 25586   7.5473 312.4451 5589580 323.6975   8.9172  4.76394573263500
Source of the keplerian elements: AFSPC